Starlink 5858

operational
NORAD ID: 57264 Int'l Des: 2023-094 Owner: SPXS Country: US Constellation: starlink
LEOCIRCULAR

About Starlink 5858

Description loading...

Live Position

Loading 3D Globe...

Upcoming Passes

Altitude History

Altitude vs Time

uPlot chart will show altitude changes over time

Two-Line Element Set

1 57264U 23094AY 26102.50412751 .00000654 00000-0 34076-4 0 9997
2 57264 43.0033 188.7281 0001823 273.1928 86.8715 15.26738836152417
Epoch: Apr 12, 2026 • Age: 8 hours

Current Status

Altitude 488.2 km
Velocity 7.63 km/s
Sub-Earth Point 35.41°N, 169.19°E
Launch Date Jul 7, 2023
Age 2.7 years
Type internet

Technical Details

Classification Payload
Mass 305.00 kg
Dry Mass 290.00 kg
Total Mass 305.00 kg
Length 0.20 m
Diameter 2.80 m
Span 9.00 m
Shape Box + pan
Manufacturer SPXS
Bus Type Starlink
Phase Status In Orbit
Owner/State SPXS/US

Large Constellations

Loading constellations...